Regional Weather Roundup
Issued by NWS Wilmington, NC

Home | Current Version | Previous Version | Text Only | Print | Product List | Glossary On
Versions: 1 2 3 4 5 6 7 8 9 10 11 12 13 14 15 16 17 18 19 20 21 22 23 24 25 26 27 28 29 30 31 32 33 34 35 36 37 38 39 40 41 42 43 44 45 46 47
000
ASUS42 KILM 180712
RWRILM
RWRILM
REGIONAL HOURLY WEATHER ROUNDUP
NATIONAL WEATHER SERVICE WILMINGTON NC
300 AM EDT SAT APR 18 2015

NOTE: "FAIR" INDICATES FEW OR NO CLOUDS BELOW 12,000 FEET WITH NO
SIGNIFICANT WEATHER AND/OR OBSTRUCTIONS TO VISIBILITY.

...............WFO WILMINGTON COUNTY WARNING AREA...............

......COASTAL NC AND SC COUNTIES......

CITY           SKY/WX    TMP DP  RH WIND       PRES   REMARKS
WILMINGTON     CLOUDY    66  65  96 CALM      29.96F
N MYRTLE BEACH LGT RAIN  67  66  97 CALM      29.97F
MYRTLE BEACH   CLOUDY    68  64  88 N5        29.99F

......INLAND NC AND SC COUNTIES.......

CITY           SKY/WX    TMP DP  RH WIND       PRES   REMARKS
LUMBERTON      LGT RAIN  65  64  97 CALM      29.97F FOG
ELIZABETHTOWN  CLOUDY    66  66 100 CALM      29.98F
WHITEVILLE     RAIN      65  64  96 CALM      29.98S
FLORENCE       LGT RAIN  67  65  93 N3        29.98F
DARLINGTON     CLOUDY    64  61  88 CALM      29.99F

....................REST OF NORTH CAROLINA......................

.........EASTERN NC.........

CITY           SKY/WX    TMP DP  RH WIND       PRES   REMARKS
CAPE HATTERAS  CLOUDY    63  61  93 NE3       29.97F
JACKSONVILLE   MOCLDY    63  57  82 CALM      29.97F
MOREHEAD CITY  CLOUDY    65  64  97 CALM      29.96F
KENANSVILLE    CLOUDY    64  63  96 CALM      29.99F
NEW BERN       CLOUDY    64  62  93 CALM      29.98F
ELIZABETH CITY CLOUDY    63  62  97 CALM      29.97F

.........CENTRAL NC.........

CITY           SKY/WX    TMP DP  RH WIND       PRES   REMARKS
RALEIGH DURHAM CLOUDY    64  61  90 CALM      29.99S
ROCKY MOUNT    CLOUDY    63  62  97 CALM      29.97F FOG
ROANOKE RAPIDS NOT AVBL
FAYETTEVILLE   CLOUDY    66  64  93 CALM      29.97F
HOFFMAN        CLOUDY    64  63  97 E1        30.02F

.........WESTERN NC.........

CITY           SKY/WX    TMP DP  RH WIND       PRES   REMARKS
CHARLOTTE      LGT RAIN  61  59  93 CALM      29.98F
GREENSBORO     CLOUDY    61  60  97 CALM      29.98F
HICKORY        NOT AVBL
BOONE          NOT AVBL
ASHEVILLE      NOT AVBL

.....................REST OF SOUTH CAROLINA.....................

.........EASTERN SC.........

CITY           SKY/WX    TMP DP  RH WIND       PRES   REMARKS
CHARLESTON     RAIN      67  66  97 CALM      29.99S FOG
BEAUFORT MCAS  LGT RAIN  68  67  96 CALM      29.98F FOG
HILTON HEAD    HVY RAIN  68  68 100 CALM      30.00F

.........CENTRAL SC.........

CITY           SKY/WX    TMP DP  RH WIND       PRES   REMARKS
COLUMBIA       CLOUDY    67  64  90 CALM      29.96F
ORANGEBURG     LGT RAIN  66  64  93 CALM      29.98F FOG
SUMTER SHAW    CLOUDY    65  64  96 CALM      29.96F

.........WESTERN SC.........

CITY           SKY/WX    TMP DP  RH WIND       PRES   REMARKS
GREENVILLE     NOT AVBL
ROCK HILL      CLOUDY    61  60  97 CALM      29.97F FOG
ANDERSON       FOG       63  62  97 CALM      30.00S VSB 1
CLEMSON        NOT AVBL
GREENWOOD      CLOUDY    63  61  93 CALM      30.00F FOG


...................COASTAL AND OFFSHORE REPORTS..................

................LOCAL PIERS AND NC RESERVE................


STATION/POSITION TIME  SKY/WX   TEMP    WIND        PRES    VSBY
                                AIR SEA DIR/SP/G
                 (UTC)          (F)     (DEG/KT/KT) (MB)    (MI)
JOHNY MRCER PIER 0624            66 65  330/  4/  5 1014.2F
NC RESRV MASNBRO NOT AVBL
OCEAN CREST PIER 0702            67 65  330/  5/  6 1013.7F
SPRINGMAID  PIER 0600            68 64  300/  3/  4 1015.2F


................COASTAL AND OFFSHORE BUOYS................


STATION/POSITION TIME  SKY/WX   TEMP    WIND        PRES    VSBY
                                AIR SEA DIR/SP/G
                 (UTC)          (F)     (DEG/KT/KT) (MB)    (MI)
DIMNDSHOAL 41025 0650            72 74  360/  4/  6 1014.6F
WVE H/P(F/S)=  5/ 8 WND WVE H/P(F/S)=  2/ 4 SWL H/P/D(F/S/D)=  5/100/ 8

CAPE LOOKOUT     0700            67     360/  1/  1 1014.3F
ONSLOW BAY 41036 NOT AVBL
5 WRITEBCH 41038 0600            64 63   20/  4/  6 1014.7F
MASONBORO  41110 0619               64                N/A
WVE H/P(F/S)=  3/ 8 WND WVE H/P(F/S)=  3/ 8

WILM HARBR 41108 0611               63                N/A
WVE H/P(F/S)=  3/ 8 WND WVE H/P(F/S)=  3/ 8

27WRITEBCH 41037 0600            70 72  130/  6/  6   N/A
FRYING PAN 41013 0650            74 73   90/  6/  8 1014.4F
WVE H/P(F/S)=  4/ 8 WND WVE H/P(F/S)=  2/ 4 SWL H/P/D(F/S/D)=  3/120/ 8

SUNST NRSH 41024 0608            66     360/  4/  6   N/A
CAPRS NRSH 41029 NOT AVBL
EDISTO     41004 0650            71 74  350/  6/  8 1014.0F
WVE H/P(F/S)=  4/ 8 WND WVE H/P(F/S)=  2/ 4 SWL H/P/D(F/S/D)=  3/ 8



..........OFFSHORE BUOYS BEYOND 100 NM OFFSHORE...........
.....IN A TRIANGLE---HAT TO BERMUDA TO BAHAMAS TO HAT.....


STATION/POSITION TIME  SKY/WX   TEMP    WIND        PRES    VSBY
                                AIR SEA DIR/SP/G
                 (UTC)          (F)     (DEG/KT/KT) (MB)    (MI)
150E HAT   41001 NOT AVBL
W BERMUDA  41048 0650            71 71  180/ 12/ 14 1014.6F
WVE H/P(F/S)=  6/12 WND WVE H/P(F/S)=  3/ 4 SWL H/P/D(F/S/D)=  7/12

ATLANTIC S 41049 0650            74 75  180/ 10/ 12 1018.2F
WVE H/P(F/S)=  8/13 WND WVE H/P(F/S)=  2/ 4 SWL H/P/D(F/S/D)=  8/ 20/13

E BAHAMAS  41046 0650            77 79  130/  8/ 10 1017.8F
WVE H/P(F/S)=  7/10 WND WVE H/P(F/S)=  2/ 4 SWL H/P/D(F/S/D)=  7/ 10/10

NE BAHAMAS 41047 0650            75 77  220/  6/  8 1016.4F
WVE H/P(F/S)=  6/ 9 WND WVE H/P(F/S)=  2/ 4 SWL H/P/D(F/S/D)=  7/ 50/ 9

120E CANVRL41010 0620            76 78  210/ 12/ 14 1015.2F

END


USA.gov is the U.S. government's official web portal to all federal, state and local government web resources and services.